Tracking 31027 objects as of 19-Jul-2025
HD Live streaming from Space Station
objects crossing your sky now

STARLINK-32533

Track STARLINK-32533 now!
10-day predictions
STARLINK-32533 is classified as:


NORAD ID: 61706
Int'l Code: 2024-195V
Perigee: 481.5 km
Apogee: 483.2 km
Inclination: 53.2 °
Period: 94.1 minutes
Semi major axis: 6853 km
RCS: Unknown
Launch date: October 30, 2024
Source: United States (US)
Launch site: AIR FORCE WESTERN TEST RANGE (AFWTR)
Your satellite tracking list
COSMOS 1656
Track 1 satellite(s)




NASA's NSSDC Master Catalog

Two Line Element Set (TLE):
1 61706U 24195V   25199.18826286  .00000550  00000-0  30696-4 0  9996
2 61706  53.1592 164.2078 0001280  85.4819 274.6328 15.30203113 41131
Source of the keplerian elements: AFSPC